This is the latest recevied weather packets stored in our database for station/object KM5R. If no packets are shown the sender has not sent any weather packets the latest 10 day(s).
| Time | Temp. | Humidity | Pressure | Rain* | Wind** | Luminosity | Snow |
|---|---|---|---|---|---|---|---|
| 1777743526 | 20° C | 48% | 1024.5 hPa | 0 mm | - | 748 W/m² | - |
| 1777742922 | 20.56° C | 46% | 1024.8 hPa | 0 mm | - | 739 W/m² | - |
| 1777742314 | 20° C | 47% | 1024.8 hPa | 0 mm | - | 726 W/m² | - |
| 1777741709 | 19.44° C | 46% | 1025 hPa | 0 mm | - | 712 W/m² | - |
| 1777741101 | 20° C | 46% | 1024.9 hPa | 0 mm | - | 693 W/m² | - |
| 1777739888 | 19.44° C | 48% | 1025 hPa | 0 mm | - | 657 W/m² | - |
| 1777739283 | 19.44° C | 52% | 1024.9 hPa | 0 mm | - | 603 W/m² | - |
| 1777738675 | 18.89° C | 58% | 1024.8 hPa | 0 mm | - | 594 W/m² | - |
| 1777738070 | 18.33° C | 57% | 1024.7 hPa | 0 mm | - | 580 W/m² | - |
| 1777737467 | 18.33° C | 58% | 1024.8 hPa | 0 mm | - | 551 W/m² | - |
| 1777736246 | 17.78° C | 61% | 1024.8 hPa | 0 mm | - | 500 W/m² | - |
| 1777735943 | 17.78° C | 62% | 1024.6 hPa | 0 mm | - | 472 W/m² | - |
| 1777735640 | 17.22° C | 64% | 1024.9 hPa | 0 mm | - | 473 W/m² | - |
| 1777735337 | 17.78° C | 62% | 1024.8 hPa | 0 mm | - | 466 W/m² | - |
| 1777735035 | 17.22° C | 64% | 1024.8 hPa | 0 mm | - | 438 W/m² | - |
| 1777734732 | 17.78° C | 63% | 1024.7 hPa | 0 mm | - | 426 W/m² | - |
| 1777734429 | 17.78° C | 63% | 1024.7 hPa | 0 mm | - | 401 W/m² | - |
| 1777734126 | 17.22° C | 63% | 1024.7 hPa | 0 mm | - | 399 W/m² | - |
| 1777733822 | 16.67° C | 64% | 1024.6 hPa | 0 mm | - | 389 W/m² | - |
| 1777733519 | 16.67° C | 62% | 1024.6 hPa | 0 mm | - | 376 W/m² | - |
| 1777733215 | 16.67° C | 62% | 1024.6 hPa | 0 mm | - | 362 W/m² | - |
| 1777732912 | 16.67° C | 64% | 1024.3 hPa | 0 mm | - | 348 W/m² | - |
| 1777732608 | 16.11° C | 63% | 1024.4 hPa | 0 mm | - | 337 W/m² | - |
| 1777732306 | 16.11° C | 64% | 1024.5 hPa | 0 mm | - | 319 W/m² | - |
| 1777732003 | 16.11° C | 64% | 1024.5 hPa | 0 mm | - | 312 W/m² | - |
* Rain latest hour (hover to see other rain measurements)
** Current wind speed in m/s (hover to see current wind gust speed)